Regional Weather Roundup
Issued by NWS

Home | Current Version | Previous Version | Text Only | Print | Product List | Glossary Off
Versions: 1 2 3 4 5 6 7 8 9 10 11 12 13 14 15 16 17 18 19 20 21 22 23 24 25 26 27 28 29 30 31 32 33 34 35 36 37 38 39 40 41 42 43 44 45 46 47 48 49 50

000
ASUS45 KBOU 191907
RWRCO

WEATHER ROUNDUP FOR COLORADO
NATIONAL WEATHER SERVICE DENVER/BOULDER CO
100 PM MDT SUN OCT 19 2014

NOTE: "FAIR" INDICATES FEW OR NO CLOUDS BELOW 12000 FEET WITH NO
SIGNIFICANT WEATHER AND/OR OBSTRUCTIONS TO VISIBILITY.

COZ001>005-013-030-031-192000-
...NORTHWEST COLORADO...

CITY           SKY/WX    TMP DP  RH WIND       PRES   REMARKS
CRAIG          SUNNY     67  31  26 CALM      30.18F
HAYDEN         SUNNY     64  30  27 NW3       30.19F
MEEKER         SUNNY     69  33  26 CALM      30.18F
MOUNT WERNER   NOT AVBL
STEAMBOAT SPGS SUNNY     63  30  29 SE3       30.21F
WALDEN         SUNNY     59  27  29 CALM      30.27F
$$

COZ006>008-011-192000-
...WEST CENTRAL VALLEYS...

CITY           SKY/WX    TMP DP  RH WIND       PRES   REMARKS
GRAND JUNCTION SUNNY     70  42  36 CALM      30.10F
MONTROSE       SUNNY     68  37  32 VRB5      30.16F
EAGLE          MOSUNNY   61  34  36 SW3       30.23F
RIFLE          SUNNY     67  37  33 VRB3      30.14F
DELTA          SUNNY     72  36  26 CALM      30.13F
NUCLA          SUNNY     68  36  30 N6        30.19F
$$

COZ017>023-064>068-192000-
...SOUTHWEST COLORADO...

CITY           SKY/WX    TMP DP  RH WIND       PRES   REMARKS
DURANGO        MOSUNNY   65  42  43 VRB5      30.20F
CORTEZ         SUNNY     70  43  37 W8        30.15F
PAGOSA SPRINGS MOSUNNY   63  36  36 CALM      30.24F
TELLURIDE      CLOUDY    56  32  40 SW7       30.32F THUNDER
WOLF CREEK PAS PTSUNNY   41  32  70 SW6       30.45F
$$

COZ009-010-012-014-032>034-037-058>063-192000-
...CENTRAL COLORADO...

CITY           SKY/WX    TMP DP  RH WIND       PRES   REMARKS
ASPEN          MOSUNNY   59  34  39 N7        30.24F
BUENA VISTA    CLOUDY    62  30  30 W5        30.25F
COPPER MTN     PTSUNNY   52  25  35 N7        30.47F
BERTHOUD PASS  PTSUNNY   37  34  87 MISG      30.50F
COTTONWOOD PAS CLOUDY    55  30  38 CALM      30.36F
GUNNISON       MOSUNNY   61  34  36 S6        30.27F
KREMMLING      SUNNY     59  27  29 CALM        N/A
LEADVILLE      CLOUDY    53  27  36 CALM      30.34F
SALIDA         CLOUDY    66  32  28 E3        30.30F
SUNLIGHT       MOSUNNY   52  32  46 CALM      30.42F
WILKERSON PASS NOT AVBL
$$

COZ069>075-192000-
...SAN LUIS VALLEY/SANGRE DE CRISTO MOUNTAINS...

CITY           SKY/WX    TMP DP  RH WIND       PRES   REMARKS
ALAMOSA        SUNNY     61  35  37 CALM      30.23F
LA VETA PASS   MOSUNNY   54  34  47 CALM      30.37F
SAGUACHE       MOSUNNY   61  37  41 S6        30.27F
$$

COZ035-036-038>040-192000-
...NORTHERN COLORADO FRONT RANGE...

CITY           SKY/WX    TMP DP  RH WIND       PRES   REMARKS
DENVER INTL AP MOSUNNY   72  31  22 N3        30.13F
DMNS CITY PARK   N/A     74  29  19 E5G10     30.12F
AURORA         MOSUNNY   70  30  22 NE5       30.15F
FRONT RANGE AP NOT AVBL
ERIE MUNI ARPT SUNNY     73  31  21 E9        30.11F
BOULDER MUN AP SUNNY     73  32  21 E9        30.11F
CENTENNIAL     MOSUNNY   69  31  24 VRB5      30.15F
BROOMFIELD     MOSUNNY   72  30  21 E8        30.14F
FORT COLLINS   SUNNY     72  39  30 SE7       30.11F
LONGMONT       SUNNY     77  32  19 E7        30.11F
$$

COZ041-046-047-076>085-087-088-192000-
...PIKES PEAK/PALMER DIVIDE AND SOUTHERN FOOTHILLS...

CITY           SKY/WX    TMP DP  RH WIND       PRES   REMARKS
COLO. SPRINGS  MOSUNNY   71  28  20 VRB5      30.16F
A. F. ACADEMY  MOSUNNY   68  28  22 E8G17     30.17F
ELLICOTT       NOT AVBL
FALCON         MOSUNNY   69  27  21 NE8G16    30.21F HAZE
FORT CARSON    MOSUNNY   73  31  21 E7        30.14F
LIMON          SUNNY     71  32  23 N14       30.12F
MONUMENT HILL  SUNNY     63  30  29 N7        30.21F
TRINIDAD       SUNNY     74  33  22 NE10      30.12F
$$

COZ042>045-048>051-090-091-192000-
...NORTHEAST COLORADO...

CITY           SKY/WX    TMP DP  RH WIND       PRES   REMARKS
GREELEY ARPT   SUNNY     72  36  26 NE7       30.10F
AKRON          SUNNY     71  39  31 NE6       30.09F
BURLINGTON     SUNNY     74  41  30 N9        30.05F
WRAY           SUNNY     77  38  24 NE7       30.03F
STERLING       SUNNY     73  45  35 NE7       30.06F
HOLYOKE        SUNNY     79  43  27 NE6       30.04F
FORT MORGAN    SUNNY     72  34  24 NE7       30.09F
$$

COZ086-089-092>099-192000-
...SOUTHEAST COLORADO...

CITY           SKY/WX    TMP DP  RH WIND       PRES   REMARKS
PUEBLO         MOSUNNY   73  36  25 CALM      30.08F
LA JUNTA       MOSUNNY   74  41  30 VRB6      30.05F
LAMAR          SUNNY     73  46  38 W9        30.01F
SPRINGFIELD      N/A     75  43  31 W7        30.04F
$$


USA.gov is the U.S. government's official web portal to all federal, state and local government web resources and services.